Data No,UTC Date,UTC Time,Latitude,Longitude,Course(deg),Temp(degC),Sal(psu)
516,2023/8/25,8:35,42-36.96N,141-37.10E,209,25.922,
517,2023/8/25,8:36,42-36.73N,141-36.94E,203,26.462,
518,2023/8/25,8:37,42-36.46N,141-36.90E,181,26.896,
519,2023/8/25,8:38,42-36.19N,141-36.90E,178,26.499,
520,2023/8/25,8:39,42-35.92N,141-36.90E,178,26.323,
521,2023/8/25,8:40,42-35.64N,141-36.91E,179,26.225,
522,2023/8/25,8:41,42-35.37N,141-36.91E,179,26.152,
523,2023/8/25,8:42,42-35.08N,141-36.92E,179,26.067,
524,2023/8/25,8:43,42-34.80N,141-36.92E,180,25.846,
525,2023/8/25,8:44,42-34.52N,141-36.92E,180,25.678,
526,2023/8/25,8:45,42-34.23N,141-36.91E,180,25.662,
527,2023/8/25,8:46,42-33.94N,141-36.91E,180,25.477,
528,2023/8/25,8:47,42-33.66N,141-36.91E,180,25.319,
529,2023/8/25,8:48,42-33.39N,141-36.90E,180,24.883,
530,2023/8/25,8:49,42-33.10N,141-36.90E,181,24.77,
531,2023/8/25,8:50,42-32.81N,141-36.89E,181,24.772,
532,2023/8/25,8:51,42-32.53N,141-36.88E,181,24.204,
533,2023/8/25,8:52,42-32.25N,141-36.88E,181,24.305,
534,2023/8/25,8:53,42-31.97N,141-36.87E,181,24.486,
535,2023/8/25,8:54,42-31.68N,141-36.86E,181,25.61,
536,2023/8/25,8:55,42-31.39N,141-36.85E,181,25.724,
537,2023/8/25,8:56,42-31.11N,141-36.84E,181,25.53,
538,2023/8/25,8:57,42-30.82N,141-36.84E,181,25.279,
539,2023/8/25,8:58,42-30.55N,141-36.83E,181,25.06,
540,2023/8/25,8:59,42-30.26N,141-36.81E,181,24.742,
541,2023/8/25,9:00,42-29.98N,141-36.80E,181,24.951,
542,2023/8/25,9:01,42-29.70N,141-36.79E,181,25.03,
543,2023/8/25,9:02,42-29.40N,141-36.78E,181,24.979,
544,2023/8/25,9:03,42-29.13N,141-36.77E,181,24.997,
545,2023/8/25,9:04,42-28.85N,141-36.76E,181,25.548,
546,2023/8/25,9:05,42-28.57N,141-36.75E,181,25.244,
547,2023/8/25,9:06,42-28.29N,141-36.74E,181,25.395,
548,2023/8/25,9:07,42-28.00N,141-36.73E,181,25.229,
549,2023/8/25,9:08,42-27.74N,141-36.72E,181,25.223,
550,2023/8/25,9:09,42-27.45N,141-36.71E,182,25.087,
551,2023/8/25,9:10,42-27.17N,141-36.70E,182,25.065,
552,2023/8/25,9:11,42-26.88N,141-36.69E,181,24.973,
553,2023/8/25,9:12,42-26.60N,141-36.68E,181,24.878,
554,2023/8/25,9:13,42-26.36N,141-36.67E,181,25.297,
555,2023/8/25,9:14,42-26.09N,141-36.66E,181,25.521,
556,2023/8/25,9:15,42-25.82N,141-36.65E,181,25.554,
557,2023/8/25,9:16,42-25.53N,141-36.63E,181,24.916,
558,2023/8/25,9:17,42-25.25N,141-36.62E,181,24.821,
559,2023/8/25,9:18,42-24.98N,141-36.61E,181,24.816,
560,2023/8/25,9:19,42-24.75N,141-36.61E,181,25.365,
561,2023/8/25,9:20,42-24.48N,141-36.60E,181,24.552,
562,2023/8/25,9:21,42-24.22N,141-36.59E,181,24.6,
563,2023/8/25,9:22,42-23.95N,141-36.58E,181,24.698,
564,2023/8/25,9:23,42-23.68N,141-36.58E,181,24.989,
565,2023/8/25,9:24,42-23.39N,141-36.57E,180,25.508,
566,2023/8/25,9:25,42-23.14N,141-36.57E,180,25.496,
567,2023/8/25,9:26,42-22.87N,141-36.56E,180,25.884,
568,2023/8/25,9:27,42-22.60N,141-36.56E,180,25.974,
569,2023/8/25,9:28,42-22.33N,141-36.56E,180,25.528,
570,2023/8/25,9:29,42-22.06N,141-36.56E,180,25.725,
571,2023/8/25,9:30,42-21.78N,141-36.56E,180,25.492,
572,2023/8/25,9:31,42-21.51N,141-36.56E,180,24.991,
573,2023/8/25,9:32,42-21.24N,141-36.56E,180,24.561,
574,2023/8/25,9:33,42-20.92N,141-36.56E,180,24.646,
575,2023/8/25,9:34,42-20.67N,141-36.56E,180,24.645,
576,2023/8/25,9:35,42-20.42N,141-36.55E,180,25.194,
577,2023/8/25,9:36,42-20.15N,141-36.55E,180,24.506,
578,2023/8/25,9:37,42-19.87N,141-36.55E,180,24.036,
579,2023/8/25,9:38,42-19.59N,141-36.55E,180,24.212,
580,2023/8/25,9:39,42-19.32N,141-36.55E,180,24.239,
581,2023/8/25,9:40,42-19.04N,141-36.54E,180,23.885,
582,2023/8/25,9:41,42-18.77N,141-36.54E,180,23.848,
583,2023/8/25,9:42,42-18.49N,141-36.54E,180,23.818,
584,2023/8/25,9:43,42-18.22N,141-36.53E,180,23.752,
585,2023/8/25,9:44,42-17.95N,141-36.53E,180,24.044,
586,2023/8/25,9:45,42-17.67N,141-36.53E,180,23.703,
587,2023/8/25,9:46,42-17.41N,141-36.53E,180,24.054,
588,2023/8/25,9:47,42-17.13N,141-36.52E,180,24.108,
589,2023/8/25,9:48,42-16.87N,141-36.52E,180,24.05,
590,2023/8/25,9:49,42-16.60N,141-36.52E,180,24.162,
591,2023/8/25,9:50,42-16.32N,141-36.51E,180,24.094,
592,2023/8/25,9:51,42-16.05N,141-36.51E,180,24.897,
593,2023/8/25,9:52,42-15.78N,141-36.51E,180,25.061,
594,2023/8/25,9:53,42-15.51N,141-36.51E,180,24.82,
595,2023/8/25,9:54,42-15.24N,141-36.51E,180,24.646,
596,2023/8/25,9:55,42-14.96N,141-36.51E,179,24.903,
597,2023/8/25,9:56,42-14.70N,141-36.50E,180,24.352,
598,2023/8/25,9:57,42-14.44N,141-36.50E,180,23.797,
599,2023/8/25,9:58,42-14.16N,141-36.50E,180,23.876,
600,2023/8/25,9:59,42-13.89N,141-36.50E,180,23.821,
601,2023/8/25,10:00,42-13.63N,141-36.49E,180,24.012,
602,2023/8/25,10:01,42-13.35N,141-36.49E,180,23.956,
603,2023/8/25,10:02,42-13.09N,141-36.49E,180,24.292,
604,2023/8/25,10:03,42-12.82N,141-36.49E,180,24.092,
605,2023/8/25,10:04,42-12.55N,141-36.49E,180,23.931,
606,2023/8/25,10:05,42-12.29N,141-36.49E,180,23.65,
607,2023/8/25,10:06,42-12.01N,141-36.49E,180,23.721,
608,2023/8/25,10:07,42-11.75N,141-36.49E,179,23.816,
609,2023/8/25,10:08,42-11.48N,141-36.49E,179,23.967,
610,2023/8/25,10:09,42-11.20N,141-36.49E,180,23.964,
611,2023/8/25,10:10,42-10.94N,141-36.49E,180,23.862,
612,2023/8/25,10:11,42-10.66N,141-36.49E,179,24.022,
613,2023/8/25,10:12,42-10.40N,141-36.49E,179,24.114,
614,2023/8/25,10:13,42-10.12N,141-36.49E,179,24.597,
615,2023/8/25,10:14,42-09.85N,141-36.49E,180,24.637,
616,2023/8/25,10:15,42-09.58N,141-36.50E,179,25.097,
617,2023/8/25,10:16,42-09.31N,141-36.50E,179,25.349,
618,2023/8/25,10:17,42-09.03N,141-36.50E,179,25.701,
619,2023/8/25,10:18,42-08.76N,141-36.50E,180,25.327,
620,2023/8/25,10:19,42-08.49N,141-36.50E,180,24.362,
621,2023/8/25,10:20,42-08.21N,141-36.50E,179,23.895,
622,2023/8/25,10:21,42-07.95N,141-36.51E,179,23.853,
623,2023/8/25,10:22,42-07.68N,141-36.51E,179,23.912,
624,2023/8/25,10:23,42-07.40N,141-36.51E,179,23.98,
625,2023/8/25,10:24,42-07.13N,141-36.51E,179,23.927,
626,2023/8/25,10:25,42-06.85N,141-36.52E,179,23.883,
627,2023/8/25,10:26,42-06.58N,141-36.52E,179,23.958,
628,2023/8/25,10:27,42-06.31N,141-36.53E,180,24.019,
629,2023/8/25,10:28,42-06.04N,141-36.52E,179,23.881,
630,2023/8/25,10:29,42-05.76N,141-36.52E,179,23.757,
631,2023/8/25,10:30,42-05.50N,141-36.52E,179,23.715,
632,2023/8/25,10:31,42-05.22N,141-36.53E,180,24.642,
633,2023/8/25,10:32,42-04.94N,141-36.53E,180,24.586,
634,2023/8/25,10:33,42-04.68N,141-36.53E,179,23.942,
635,2023/8/25,10:34,42-04.40N,141-36.53E,180,23.823,
636,2023/8/25,10:35,42-04.14N,141-36.53E,179,24.102,
637,2023/8/25,10:36,42-03.86N,141-36.52E,180,24.062,
638,2023/8/25,10:37,42-03.58N,141-36.52E,180,24.015,
639,2023/8/25,10:38,42-03.32N,141-36.52E,180,24.187,
640,2023/8/25,10:39,42-03.04N,141-36.52E,180,23.787,
641,2023/8/25,10:40,42-02.77N,141-36.51E,181,24.331,
642,2023/8/25,10:41,42-02.49N,141-36.51E,180,24.274,
643,2023/8/25,10:42,42-02.22N,141-36.50E,180,24.132,
644,2023/8/25,10:43,42-01.96N,141-36.50E,180,23.487,
645,2023/8/25,10:44,42-01.68N,141-36.49E,180,23.356,
646,2023/8/25,10:45,42-01.41N,141-36.48E,180,23.269,
647,2023/8/25,10:46,42-01.14N,141-36.48E,181,23.438,
648,2023/8/25,10:47,42-00.86N,141-36.47E,181,23.363,
649,2023/8/25,10:48,42-00.60N,141-36.46E,180,23.601,
650,2023/8/25,10:49,42-00.32N,141-36.46E,180,23.582,
651,2023/8/25,10:50,42-00.06N,141-36.45E,181,23.764,
652,2023/8/25,10:51,41-59.78N,141-36.44E,181,23.937,
653,2023/8/25,10:52,41-59.51N,141-36.44E,180,24.052,
654,2023/8/25,10:53,41-59.23N,141-36.44E,180,24.443,
655,2023/8/25,10:54,41-58.94N,141-36.45E,180,24.364,
656,2023/8/25,10:55,41-58.68N,141-36.45E,179,24.443,
657,2023/8/25,10:56,41-58.41N,141-36.43E,181,24.556,
658,2023/8/25,10:57,41-58.13N,141-36.43E,180,24.073,
659,2023/8/25,10:58,41-57.86N,141-36.43E,179,24.205,
660,2023/8/25,10:59,41-57.57N,141-36.42E,180,24.033,
661,2023/8/25,11:00,41-57.30N,141-36.42E,180,24.042,
662,2023/8/25,11:01,41-57.03N,141-36.42E,180,24.508,
663,2023/8/25,11:02,41-56.74N,141-36.41E,180,24.026,
664,2023/8/25,11:03,41-56.47N,141-36.41E,180,23.895,
665,2023/8/25,11:04,41-56.18N,141-36.40E,180,24.042,
666,2023/8/25,11:05,41-55.91N,141-36.40E,181,23.382,
667,2023/8/25,11:06,41-55.64N,141-36.39E,181,23.135,
668,2023/8/25,11:07,41-55.36N,141-36.38E,180,22.924,
669,2023/8/25,11:08,41-55.07N,141-36.38E,180,22.649,
670,2023/8/25,11:09,41-54.80N,141-36.37E,181,22.402,
671,2023/8/25,11:10,41-54.53N,141-36.37E,180,22.448,
672,2023/8/25,11:11,41-54.25N,141-36.36E,181,23.768,
673,2023/8/25,11:12,41-53.97N,141-36.35E,182,23.126,
674,2023/8/25,11:13,41-53.68N,141-36.34E,180,23.222,
675,2023/8/25,11:14,41-53.41N,141-36.34E,179,24.148,
676,2023/8/25,11:15,41-53.12N,141-36.33E,181,25.039,
677,2023/8/25,11:16,41-52.85N,141-36.32E,181,24.807,
678,2023/8/25,11:17,41-52.57N,141-36.31E,181,24.104,
679,2023/8/25,11:18,41-52.29N,141-36.30E,181,23.693,
680,2023/8/25,11:19,41-52.01N,141-36.29E,181,23.733,
681,2023/8/25,11:20,41-51.73N,141-36.28E,181,25.381,
682,2023/8/25,11:21,41-51.47N,141-36.27E,181,25.902,
683,2023/8/25,11:22,41-51.19N,141-36.26E,181,26.045,
684,2023/8/25,11:23,41-50.92N,141-36.25E,181,25.948,
685,2023/8/25,11:24,41-50.65N,141-36.24E,182,25.812,
686,2023/8/25,11:25,41-50.38N,141-36.23E,180,25.472,
687,2023/8/25,11:26,41-50.11N,141-36.23E,181,25.502,
688,2023/8/25,11:27,41-49.84N,141-36.21E,181,25.291,
689,2023/8/25,11:28,41-49.57N,141-36.20E,181,24.97,
690,2023/8/25,11:29,41-49.29N,141-36.20E,181,24.413,
691,2023/8/25,11:30,41-49.02N,141-36.19E,180,23.505,
692,2023/8/25,11:31,41-48.74N,141-36.18E,180,23.346,
693,2023/8/25,11:32,41-48.42N,141-36.17E,181,24.036,
694,2023/8/25,11:33,41-48.16N,141-36.15E,182,22.687,
695,2023/8/25,11:34,41-47.88N,141-36.15E,181,22.75,
696,2023/8/25,11:35,41-47.60N,141-36.14E,181,24.467,
697,2023/8/25,11:36,41-47.36N,141-36.15E,180,25.22,
698,2023/8/25,11:37,41-47.08N,141-36.15E,181,25.218,
699,2023/8/25,11:38,41-46.81N,141-36.14E,180,24.391,
700,2023/8/25,11:39,41-46.54N,141-36.14E,181,24.226,
701,2023/8/25,11:40,41-46.26N,141-36.13E,181,23.626,
702,2023/8/25,11:41,41-45.99N,141-36.12E,180,24.403,
703,2023/8/25,11:42,41-45.71N,141-36.12E,180,25.291,
704,2023/8/25,11:43,41-45.43N,141-36.11E,181,25.283,
705,2023/8/25,11:44,41-45.15N,141-36.09E,181,24.937,
706,2023/8/25,11:45,41-44.88N,141-36.09E,180,25.404,
707,2023/8/25,11:46,41-44.62N,141-36.08E,181,25.641,
708,2023/8/25,11:47,41-44.34N,141-36.07E,181,25.568,
709,2023/8/25,11:48,41-44.07N,141-36.07E,180,25.497,
710,2023/8/25,11:49,41-43.79N,141-36.07E,178,25.312,
711,2023/8/25,11:50,41-43.51N,141-36.08E,176,25.515,
712,2023/8/25,11:51,41-43.24N,141-36.10E,177,26.065,
713,2023/8/25,11:52,41-42.96N,141-36.12E,177,26.071,
714,2023/8/25,11:53,41-42.68N,141-36.13E,176,25.543,
715,2023/8/25,11:54,41-42.40N,141-36.16E,176,25.86,
716,2023/8/25,11:55,41-42.11N,141-36.19E,175,25.562,
717,2023/8/25,11:56,41-41.83N,141-36.21E,176,25.458,
718,2023/8/25,11:57,41-41.53N,141-36.24E,175,25.275,
719,2023/8/25,11:58,41-41.24N,141-36.28E,173,25.506,
720,2023/8/25,11:59,41-40.92N,141-36.35E,170,25.404,
721,2023/8/25,12:00,41-40.64N,141-36.40E,173,26.122,
722,2023/8/25,12:01,41-40.34N,141-36.43E,175,26.083,
723,2023/8/25,12:02,41-40.08N,141-36.45E,176,26.305,
724,2023/8/25,12:03,41-39.79N,141-36.47E,176,26.344,
725,2023/8/25,12:04,41-39.49N,141-36.50E,176,26.306,
726,2023/8/25,12:05,41-39.16N,141-36.53E,176,26.251,
727,2023/8/25,12:06,41-38.86N,141-36.55E,176,26.187,
728,2023/8/25,12:07,41-38.56N,141-36.58E,176,26.405,
729,2023/8/25,12:08,41-38.26N,141-36.60E,175,26.452,
730,2023/8/25,12:09,41-37.97N,141-36.63E,176,26.381,
731,2023/8/25,12:10,41-37.66N,141-36.66E,176,26.11,
732,2023/8/25,12:11,41-37.42N,141-36.68E,176,26.179,
733,2023/8/25,12:12,41-37.12N,141-36.70E,176,26.116,
734,2023/8/25,12:13,41-36.82N,141-36.72E,176,26.003,
735,2023/8/25,12:14,41-36.52N,141-36.74E,177,25.942,
736,2023/8/25,12:15,41-36.22N,141-36.76E,177,25.927,
737,2023/8/25,12:16,41-35.88N,141-36.78E,177,25.881,
738,2023/8/25,12:17,41-35.56N,141-36.80E,177,25.828,
739,2023/8/25,12:18,41-35.31N,141-36.81E,178,25.81,
740,2023/8/25,12:19,41-35.01N,141-36.82E,178,25.817,
741,2023/8/25,12:20,41-34.70N,141-36.83E,178,25.841,
742,2023/8/25,12:21,41-34.39N,141-36.84E,178,25.847,
743,2023/8/25,12:22,41-34.04N,141-36.86E,178,25.87,
744,2023/8/25,12:23,41-33.75N,141-36.87E,178,25.893,
745,2023/8/25,12:24,41-33.44N,141-36.88E,178,25.891,
746,2023/8/25,12:25,41-33.14N,141-36.89E,178,25.881,
747,2023/8/25,12:26,41-32.84N,141-36.90E,178,25.885,
748,2023/8/25,12:27,41-32.52N,141-36.90E,179,25.831,
749,2023/8/25,12:28,41-32.23N,141-36.91E,179,25.825,
750,2023/8/25,12:29,41-31.92N,141-36.91E,179,25.818,
751,2023/8/25,12:30,41-31.61N,141-36.91E,179,25.799,
752,2023/8/25,12:31,41-31.31N,141-36.92E,179,25.747,
753,2023/8/25,12:32,41-31.00N,141-36.92E,179,25.666,
754,2023/8/25,12:33,41-30.70N,141-36.92E,179,25.565,
755,2023/8/25,12:34,41-30.39N,141-36.92E,180,25.373,
756,2023/8/25,12:35,41-30.09N,141-36.92E,180,25.274,
757,2023/8/25,12:36,41-29.79N,141-36.91E,180,25.044,
758,2023/8/25,12:37,41-29.47N,141-36.91E,180,24.984,
759,2023/8/25,12:38,41-29.20N,141-36.90E,181,24.897,
760,2023/8/25,12:39,41-28.90N,141-36.89E,181,24.807,
761,2023/8/25,12:40,41-28.59N,141-36.88E,181,24.748,
762,2023/8/25,12:41,41-28.32N,141-36.87E,181,24.703,
763,2023/8/25,12:42,41-28.03N,141-36.85E,182,24.743,
764,2023/8/25,12:43,41-27.76N,141-36.85E,180,24.923,
765,2023/8/25,12:44,41-27.48N,141-36.84E,180,24.991,
766,2023/8/25,12:45,41-27.20N,141-36.83E,181,25.053,
767,2023/8/25,12:46,41-26.94N,141-36.82E,181,25.189,
768,2023/8/25,12:47,41-26.66N,141-36.81E,181,25.23,
769,2023/8/25,12:48,41-26.40N,141-36.80E,181,25.178,
770,2023/8/25,12:49,41-26.12N,141-36.79E,181,25.393,
771,2023/8/25,12:50,41-25.85N,141-36.78E,181,25.261,
772,2023/8/25,12:51,41-25.59N,141-36.77E,182,25.194,
773,2023/8/25,12:52,41-25.32N,141-36.75E,181,25.189,
774,2023/8/25,12:53,41-25.05N,141-36.74E,182,25.143,
775,2023/8/25,12:54,41-24.78N,141-36.73E,179,25.149,
776,2023/8/25,12:55,41-24.51N,141-36.76E,175,24.842,
777,2023/8/25,12:56,41-24.25N,141-36.80E,174,24.84,
778,2023/8/25,12:57,41-23.97N,141-36.84E,174,24.937,
779,2023/8/25,12:58,41-23.72N,141-36.86E,177,25.058,
780,2023/8/25,12:59,41-23.44N,141-36.88E,175,24.964,
781,2023/8/25,13:00,41-23.16N,141-36.91E,175,24.96,
782,2023/8/25,13:01,41-22.89N,141-36.94E,175,24.999,
783,2023/8/25,13:02,41-22.61N,141-37.01E,167,25.088,
784,2023/8/25,13:03,41-22.35N,141-37.10E,166,25.183,
785,2023/8/25,13:04,41-22.07N,141-37.18E,167,25.246,
786,2023/8/25,13:05,41-21.78N,141-37.25E,169,25.556,
787,2023/8/25,13:06,41-21.51N,141-37.32E,169,25.727,
788,2023/8/25,13:07,41-21.22N,141-37.40E,168,25.779,
789,2023/8/25,13:08,41-20.97N,141-37.47E,168,25.886,
790,2023/8/25,13:09,41-20.69N,141-37.54E,168,25.739,
791,2023/8/25,13:10,41-20.41N,141-37.62E,169,25.414,
792,2023/8/25,13:11,41-20.13N,141-37.69E,168,25.503,
793,2023/8/25,13:12,41-19.84N,141-37.77E,167,25.311,
794,2023/8/25,13:13,41-19.57N,141-37.85E,167,25.74,
795,2023/8/25,13:14,41-19.30N,141-37.93E,167,25.823,
796,2023/8/25,13:15,41-19.03N,141-38.03E,161,25.748,
797,2023/8/25,13:16,41-18.74N,141-38.15E,162,25.933,
798,2023/8/25,13:17,41-18.46N,141-38.25E,164,25.991,
799,2023/8/25,13:18,41-18.21N,141-38.34E,164,25.909,
800,2023/8/25,13:19,41-17.94N,141-38.44E,164,26.238,
801,2023/8/25,13:20,41-17.72N,141-38.52E,164,26.591,
802,2023/8/25,13:21,41-17.46N,141-38.62E,163,26.796,
803,2023/8/25,13:22,41-17.15N,141-38.75E,162,26.804,
804,2023/8/25,13:23,41-16.90N,141-38.85E,162,26.986,
805,2023/8/25,13:24,41-16.63N,141-38.96E,162,27.33,
806,2023/8/25,13:25,41-16.36N,141-39.07E,163,27.45,
807,2023/8/25,13:26,41-16.10N,141-39.18E,161,27.057,
808,2023/8/25,13:27,41-15.84N,141-39.29E,162,26.95,
809,2023/8/25,13:28,41-15.58N,141-39.40E,161,27.007,
810,2023/8/25,13:29,41-15.32N,141-39.51E,162,27.024,
811,2023/8/25,13:30,41-15.05N,141-39.62E,162,27.004,
812,2023/8/25,13:31,41-14.79N,141-39.72E,162,26.914,
813,2023/8/25,13:32,41-14.52N,141-39.83E,163,26.686,
814,2023/8/25,13:33,41-14.26N,141-39.92E,165,26.637,
815,2023/8/25,13:34,41-14.00N,141-40.01E,165,26.582,
816,2023/8/25,13:35,41-13.72N,141-40.10E,166,26.46,
817,2023/8/25,13:36,41-13.45N,141-40.19E,165,26.486,
818,2023/8/25,13:37,41-13.18N,141-40.28E,165,26.651,
819,2023/8/25,13:38,41-12.91N,141-40.37E,166,26.784,
820,2023/8/25,13:39,41-12.68N,141-40.44E,166,26.683,
821,2023/8/25,13:40,41-12.40N,141-40.52E,166,26.502,
822,2023/8/25,13:41,41-12.16N,141-40.60E,166,26.496,
823,2023/8/25,13:42,41-11.87N,141-40.69E,166,26.488,
824,2023/8/25,13:43,41-11.58N,141-40.78E,167,26.574,
825,2023/8/25,13:44,41-11.30N,141-40.86E,167,26.707,
826,2023/8/25,13:45,41-11.02N,141-40.94E,167,26.476,
827,2023/8/25,13:46,41-10.76N,141-41.01E,168,26.442,
828,2023/8/25,13:47,41-10.48N,141-41.09E,168,26.417,
829,2023/8/25,13:48,41-10.21N,141-41.16E,168,26.432,
830,2023/8/25,13:49,41-09.94N,141-41.24E,168,26.363,
831,2023/8/25,13:50,41-09.65N,141-41.31E,169,26.4,
832,2023/8/25,13:51,41-09.38N,141-41.38E,169,26.377,
833,2023/8/25,13:52,41-09.14N,141-41.43E,169,26.391,
834,2023/8/25,13:53,41-08.87N,141-41.50E,169,26.705,
835,2023/8/25,13:54,41-08.60N,141-41.56E,169,26.912,
836,2023/8/25,13:55,41-08.32N,141-41.63E,169,26.972,
837,2023/8/25,13:56,41-08.05N,141-41.69E,170,26.9,
838,2023/8/25,13:57,41-07.77N,141-41.75E,170,26.846,
839,2023/8/25,13:58,41-07.50N,141-41.81E,170,26.833,
840,2023/8/25,13:59,41-07.22N,141-41.87E,171,26.811,
841,2023/8/25,14:00,41-06.94N,141-41.93E,171,26.755,
842,2023/8/25,14:01,41-06.67N,141-41.98E,171,26.72,
843,2023/8/25,14:02,41-06.39N,141-42.03E,171,26.687,
844,2023/8/25,14:03,41-06.13N,141-42.08E,172,26.606,
845,2023/8/25,14:04,41-05.85N,141-42.13E,172,26.569,
846,2023/8/25,14:05,41-05.58N,141-42.18E,172,26.542,
847,2023/8/25,14:06,41-05.31N,141-42.22E,172,26.494,
848,2023/8/25,14:07,41-05.04N,141-42.27E,172,26.418,
849,2023/8/25,14:08,41-04.76N,141-42.32E,172,26.208,
850,2023/8/25,14:09,41-04.50N,141-42.36E,172,25.829,
851,2023/8/25,14:10,41-04.23N,141-42.41E,172,25.388,
852,2023/8/25,14:11,41-03.97N,141-42.46E,171,25.241,
853,2023/8/25,14:12,41-03.70N,141-42.51E,171,25.033,
854,2023/8/25,14:13,41-03.42N,141-42.57E,171,25.264,
855,2023/8/25,14:14,41-03.16N,141-42.62E,172,25.231,
856,2023/8/25,14:15,41-02.89N,141-42.67E,172,25.503,
857,2023/8/25,14:16,41-02.62N,141-42.70E,175,25.468,
858,2023/8/25,14:17,41-02.35N,141-42.72E,176,25.29,
859,2023/8/25,14:18,41-02.08N,141-42.75E,175,24.972,
860,2023/8/25,14:19,41-01.81N,141-42.78E,175,24.681,
861,2023/8/25,14:20,41-01.54N,141-42.81E,174,24.866,
862,2023/8/25,14:21,41-01.26N,141-42.85E,174,24.789,
863,2023/8/25,14:22,41-01.00N,141-42.89E,174,24.265,
864,2023/8/25,14:23,41-00.73N,141-42.91E,174,23.652,
865,2023/8/25,14:24,41-00.47N,141-42.95E,173,24.793,
866,2023/8/25,14:25,41-00.20N,141-42.99E,173,24.827,
867,2023/8/25,14:26,40-59.94N,141-43.03E,172,24.255,
868,2023/8/25,14:27,40-59.68N,141-43.09E,171,23.728,
869,2023/8/25,14:28,40-59.41N,141-43.15E,168,23.567,
870,2023/8/25,14:29,40-59.16N,141-43.22E,168,23.739,
871,2023/8/25,14:30,40-58.89N,141-43.29E,168,23.728,
872,2023/8/25,14:31,40-58.63N,141-43.36E,168,23.588,
873,2023/8/25,14:32,40-58.37N,141-43.43E,168,23.694,
874,2023/8/25,14:33,40-58.11N,141-43.50E,168,23.664,
875,2023/8/25,14:34,40-57.85N,141-43.57E,168,23.638,
876,2023/8/25,14:35,40-57.58N,141-43.64E,168,23.499,
877,2023/8/25,14:36,40-57.33N,141-43.71E,168,23.547,
878,2023/8/25,14:37,40-57.07N,141-43.78E,168,23.588,
879,2023/8/25,14:38,40-56.80N,141-43.86E,167,23.934,
880,2023/8/25,14:39,40-56.55N,141-43.93E,167,24.277,
881,2023/8/25,14:40,40-56.27N,141-44.01E,168,25.014,
882,2023/8/25,14:41,40-56.03N,141-44.08E,168,25.148,
883,2023/8/25,14:42,40-55.77N,141-44.15E,168,24.613,
884,2023/8/25,14:43,40-55.50N,141-44.23E,167,24.75,
885,2023/8/25,14:44,40-55.24N,141-44.30E,167,25.39,
886,2023/8/25,14:45,40-54.98N,141-44.38E,167,25.765,
887,2023/8/25,14:46,40-54.72N,141-44.46E,167,25.833,
888,2023/8/25,14:47,40-54.45N,141-44.55E,166,25.688,
889,2023/8/25,14:48,40-54.18N,141-44.63E,167,25.746,
890,2023/8/25,14:49,40-53.93N,141-44.70E,167,25.965,
891,2023/8/25,14:50,40-53.66N,141-44.78E,167,26.039,
892,2023/8/25,14:51,40-53.41N,141-44.85E,167,25.931,
893,2023/8/25,14:52,40-53.15N,141-44.93E,167,25.971,
894,2023/8/25,14:53,40-52.90N,141-45.01E,166,26.309,
895,2023/8/25,14:54,40-52.64N,141-45.08E,166,26.248,
896,2023/8/25,14:55,40-52.37N,141-45.17E,167,26.207,
897,2023/8/25,14:56,40-52.13N,141-45.24E,166,26.311,
898,2023/8/25,14:57,40-51.87N,141-45.32E,167,26.205,
899,2023/8/25,14:58,40-51.61N,141-45.40E,167,26.333,
900,2023/8/25,14:59,40-51.36N,141-45.47E,167,26.221,
901,2023/8/25,15:00,40-51.10N,141-45.55E,167,25.982,
902,2023/8/25,15:01,40-50.84N,141-45.63E,166,25.884,
903,2023/8/25,15:02,40-50.59N,141-45.71E,167,25.756,
904,2023/8/25,15:03,40-50.33N,141-45.79E,166,25.625,
905,2023/8/25,15:04,40-50.07N,141-45.86E,167,25.551,
906,2023/8/25,15:05,40-49.81N,141-45.94E,166,25.483,
907,2023/8/25,15:06,40-49.56N,141-46.02E,167,25.487,
908,2023/8/25,15:07,40-49.30N,141-46.09E,167,25.184,
909,2023/8/25,15:08,40-49.03N,141-46.17E,167,25.099,
910,2023/8/25,15:09,40-48.77N,141-46.25E,166,25.317,
911,2023/8/25,15:10,40-48.49N,141-46.34E,166,25.553,
912,2023/8/25,15:11,40-48.24N,141-46.42E,166,25.657,
913,2023/8/25,15:12,40-47.97N,141-46.50E,166,25.74,
914,2023/8/25,15:13,40-47.70N,141-46.58E,167,25.884,
915,2023/8/25,15:14,40-47.44N,141-46.67E,166,25.95,
916,2023/8/25,15:15,40-47.17N,141-46.75E,167,26.009,
917,2023/8/25,15:16,40-46.90N,141-46.83E,166,26.112,
918,2023/8/25,15:17,40-46.63N,141-46.92E,167,25.812,
919,2023/8/25,15:18,40-46.35N,141-47.01E,165,25.92,
920,2023/8/25,15:19,40-46.11N,141-47.09E,166,25.39,
921,2023/8/25,15:20,40-45.84N,141-47.18E,165,25.26,
922,2023/8/25,15:21,40-45.58N,141-47.26E,166,25.35,
923,2023/8/25,15:22,40-45.32N,141-47.35E,166,25.869,
924,2023/8/25,15:23,40-45.04N,141-47.44E,166,26.111,
925,2023/8/25,15:24,40-44.78N,141-47.52E,166,25.837,
926,2023/8/25,15:25,40-44.50N,141-47.61E,166,25.363,
927,2023/8/25,15:26,40-44.24N,141-47.69E,167,25.403,
928,2023/8/25,15:27,40-43.97N,141-47.78E,166,25.867,
929,2023/8/25,15:28,40-43.71N,141-47.86E,166,25.152,
930,2023/8/25,15:29,40-43.45N,141-47.94E,166,25.13,
931,2023/8/25,15:30,40-43.19N,141-48.03E,166,25.382,
932,2023/8/25,15:31,40-42.92N,141-48.11E,166,25.401,
933,2023/8/25,15:32,40-42.66N,141-48.20E,166,25.148,
934,2023/8/25,15:33,40-42.39N,141-48.28E,166,25.277,
935,2023/8/25,15:34,40-42.13N,141-48.37E,166,25.301,
936,2023/8/25,15:35,40-41.87N,141-48.46E,165,25.367,
937,2023/8/25,15:36,40-41.60N,141-48.54E,165,25.653,
938,2023/8/25,15:37,40-41.34N,141-48.63E,165,25.754,
939,2023/8/25,15:38,40-41.07N,141-48.73E,165,25.624,
940,2023/8/25,15:39,40-40.81N,141-48.81E,166,24.693,
941,2023/8/25,15:40,40-40.55N,141-48.90E,165,24.384,
942,2023/8/25,15:41,40-40.28N,141-48.99E,165,24.422,
943,2023/8/25,15:42,40-40.03N,141-49.08E,165,24.421,
944,2023/8/25,15:43,40-39.76N,141-49.17E,165,24.746,
945,2023/8/25,15:44,40-39.50N,141-49.26E,165,25.198,
946,2023/8/25,15:45,40-39.23N,141-49.35E,165,25.488,
947,2023/8/25,15:46,40-38.96N,141-49.45E,165,25.322,
948,2023/8/25,15:47,40-38.70N,141-49.54E,165,25.049,
949,2023/8/25,15:48,40-38.43N,141-49.63E,164,25.268,
950,2023/8/25,15:49,40-38.16N,141-49.73E,165,25.401,
951,2023/8/25,15:50,40-37.90N,141-49.81E,165,25.622,
952,2023/8/25,15:51,40-37.63N,141-49.91E,164,25.657,
953,2023/8/25,15:52,40-37.36N,141-50.00E,165,25.697,
954,2023/8/25,15:53,40-37.09N,141-50.10E,164,25.482,
955,2023/8/25,15:54,40-36.82N,141-50.20E,165,25.479,
956,2023/8/25,15:55,40-36.56N,141-50.29E,164,25.43,
957,2023/8/25,15:56,40-36.28N,141-50.39E,164,25.175,
958,2023/8/25,15:57,40-36.02N,141-50.48E,164,25.343,
959,2023/8/25,15:58,40-35.75N,141-50.58E,164,25.444,
960,2023/8/25,15:59,40-35.47N,141-50.67E,165,25.444,